| time (UTC) | temp C | wind direction | speed KPH | gust KPH | rain 1hr cm | rain 24hr cm | rain mn cm | humidity % | barometer mb |
| 20260906212752 | 30 | 202 | 8.0 | 12.9 | 0.00 | 0.00 | 0.00 | 38 | 911.2 |
| 20260906212248 | 31 | 185 | 11.3 | 14.5 | 0.00 | 0.00 | 0.00 | 35 | 911.1 |
| 20260906211747 | 31 | 202 | 6.4 | 8.0 | 0.00 | 0.00 | 0.00 | 35 | 911.1 |
| 20260906211243 | 31 | 195 | 4.8 | 8.0 | 0.00 | 0.00 | 0.00 | 33 | 911.3 |
| 20260906210738 | 31 | 201 | 8.0 | 12.9 | 0.00 | 0.00 | 0.00 | 33 | 911.2 |
| 20260906210233 | 31 | 197 | 8.0 | 12.9 | 0.00 | 0.00 | 0.00 | 34 | 911.4 |
| 20260906205727 | 31 | 26 | 3.2 | 6.4 | 0.00 | 0.00 | 0.00 | 34 | 911.2 |
| 20260906205225 | 31 | 164 | 4.8 | 6.4 | 0.00 | 0.00 | 0.00 | 34 | 911.4 |
| 20260906204724 | 31 | 181 | 4.8 | 6.4 | 0.00 | 0.00 | 0.00 | 34 | 911.4 |
| 20260906204223 | 31 | 95 | 3.2 | 4.8 | 0.00 | 0.00 | 0.00 | 35 | 911.2 |
| 20260906203723 | 31 | 156 | 3.2 | 4.8 | 0.00 | 0.00 | 0.00 | 34 | 911.6 |
| 20260906203218 | 30 | 203 | 4.8 | 6.4 | 0.00 | 0.00 | 0.00 | 34 | 911.4 |
| 20260906202715 | 31 | 207 | 4.8 | 6.4 | 0.00 | 0.00 | 0.00 | 34 | 911.8 |
| 20260906202215 | 30 | 157 | 3.2 | 6.4 | 0.00 | 0.00 | 0.00 | 35 | 911.7 |
| 20260906201710 | 30 | 192 | 6.4 | 8.0 | 0.00 | 0.00 | 0.00 | 35 | 911.8 |
| 20260906201209 | 31 | 183 | 8.0 | 9.7 | 0.00 | 0.00 | 0.00 | 34 | 911.9 |
| 20260906200705 | 31 | 210 | 4.8 | 4.8 | 0.00 | 0.00 | 0.00 | 35 | 911.8 |
| 20260906200201 | 30 | 11 | 1.6 | 1.6 | 0.00 | 0.00 | 0.00 | 36 | 911.8 |
| 20260906195656 | 30 | 328 | 1.6 | 4.8 | 0.00 | 0.00 | 0.00 | 35 | 912.0 |
| 20260906195153 | 30 | 199 | 4.8 | 6.4 | 0.00 | 0.00 | 0.00 | 35 | 912.0 |
| 20260906194648 | 30 | 48 | 8.0 | 9.7 | 0.00 | 0.00 | 0.00 | 37 | 912.1 |
| 20260906194137 | 30 | 224 | 4.8 | 6.4 | 0.00 | 0.00 | 0.00 | 35 | 911.9 |
| 20260906193632 | 29 | 185 | 4.8 | 6.4 | 0.00 | 0.00 | 0.00 | 36 | 912.0 |
| 20260906193127 | 30 | 210 | 6.4 | 6.4 | 0.00 | 0.00 | 0.00 | 37 | 912.2 |
| 20260906192623 | 30 | 2 | 1.6 | 4.8 | 0.00 | 0.00 | 0.00 | 38 | 912.3 |
| 20260906192122 | 29 | 197 | 8.0 | 9.7 | 0.00 | 0.00 | 0.00 | 38 | 912.1 |
| 20260906191618 | 30 | 119 | 4.8 | 6.4 | 0.00 | 0.00 | 0.00 | 36 | 912.4 |
| 20260906191117 | 30 | 213 | 8.0 | 9.7 | 0.00 | 0.00 | 0.00 | 38 | 912.5 |
| 20260906190617 | 29 | 306 | 1.6 | 1.6 | 0.00 | 0.00 | 0.00 | 37 | 912.5 |
| 20260906190111 | 30 | 188 | 4.8 | 6.4 | 0.00 | 0.00 | 0.00 | 39 | 912.6 |
| 20260906185610 | 30 | 2 | 3.2 | 4.8 | 0.00 | 0.00 | 0.00 | 38 | 912.9 |
| 20260906185109 | 29 | 212 | 4.8 | 6.4 | 0.00 | 0.00 | 0.00 | 38 | 912.9 |
| 20260906184604 | 28 | 313 | 4.8 | 6.4 | 0.00 | 0.00 | 0.00 | 37 | 913.1 |
| 20260906184100 | 28 | 207 | 6.4 | 8.0 | 0.00 | 0.00 | 0.00 | 38 | 913.1 |
| 20260906183555 | 29 | 152 | 4.8 | 4.8 | 0.00 | 0.00 | 0.00 | 37 | 913.1 |
| 20260906183051 | 29 | 204 | 11.3 | 12.9 | 0.00 | 0.00 | 0.00 | 38 | 913.2 |
| 20260906182546 | 28 | 57 | 3.2 | 4.8 | 0.00 | 0.00 | 0.00 | 38 | 913.4 |
| 20260906182042 | 29 | 340 | 1.6 | 1.6 | 0.00 | 0.00 | 0.00 | 37 | 913.4 |
| 20260906181538 | 29 | 3 | 1.6 | 4.8 | 0.00 | 0.00 | 0.00 | 39 | 913.3 |
| 20260906181033 | 28 | 109 | 1.6 | 1.6 | 0.00 | 0.00 | 0.00 | 39 | 913.0 |
| 20260906180528 | 28 | 181 | 0.0 | 0.0 | 0.00 | 0.00 | 0.00 | 38 | 913.4 |
| 20260906180027 | 28 | 223 | 4.8 | 4.8 | 0.00 | 0.00 | 0.00 | 38 | 913.5 |
| 20260906175521 | 27 | 217 | 1.6 | 4.8 | 0.00 | 0.00 | 0.00 | 39 | 913.7 |
| 20260906175020 | 27 | 355 | 3.2 | 4.8 | 0.00 | 0.00 | 0.00 | 40 | 913.7 |
| 20260906174519 | 27 | 188 | 6.4 | 8.0 | 0.00 | 0.00 | 0.00 | 41 | 913.8 |
| 20260906174014 | 26 | 227 | 4.8 | 6.4 | 0.00 | 0.00 | 0.00 | 42 | 914.0 |
| 20260906173509 | 26 | 14 | 3.2 | 4.8 | 0.00 | 0.00 | 0.00 | 44 | 914.0 |
| 20260906173004 | 26 | 253 | 1.6 | 1.6 | 0.00 | 0.00 | 0.00 | 44 | 913.8 |
| 20260906172459 | 26 | 178 | 4.8 | 6.4 | 0.00 | 0.00 | 0.00 | 43 | 914.0 |
| 20260906171954 | 26 | 336 | 4.8 | 6.4 | 0.00 | 0.00 | 0.00 | 44 | 913.8 |
| 20260906171449 | 26 | 212 | 3.2 | 4.8 | 0.00 | 0.00 | 0.00 | 45 | 914.2 |
| 20260906170944 | 25 | 224 | 4.8 | 4.8 | 0.00 | 0.00 | 0.00 | 45 | 914.3 |
| 20260906170441 | 24 | 103 | 0.0 | 0.0 | 0.00 | 0.00 | 0.00 | 51 | 914.2 |
| 20260906165937 | 24 | 224 | 1.6 | 1.6 | 0.00 | 0.00 | 0.00 | 50 | 914.1 |
| 20260906165436 | 23 | 196 | 3.2 | 6.4 | 0.00 | 0.00 | 0.00 | 52 | 914.3 |
| 20260906164932 | 23 | 227 | 6.4 | 8.0 | 0.00 | 0.00 | 0.00 | 54 | 914.4 |
| 20260906164430 | 23 | 183 | 4.8 | 6.4 | 0.00 | 0.00 | 0.00 | 56 | 914.1 |
| 20260906163927 | 22 | 199 | 3.2 | 4.8 | 0.00 | 0.00 | 0.00 | 57 | 914.3 |
| 20260906163422 | 22 | 208 | 4.8 | 6.4 | 0.00 | 0.00 | 0.00 | 58 | 914.5 |
| 20260906162921 | 22 | 175 | 1.6 | 1.6 | 0.00 | 0.00 | 0.00 | 59 | 914.3 |
| 20260906162419 | 22 | 200 | 3.2 | 4.8 | 0.00 | 0.00 | 0.00 | 60 | 914.3 |
| 20260906161915 | 22 | 209 | 6.4 | 6.4 | 0.00 | 0.00 | 0.00 | 59 | 914.3 |
| 20260906161414 | 22 | 207 | 4.8 | 8.0 | 0.00 | 0.00 | 0.00 | 62 | 914.6 |
| 20260906160913 | 21 | 146 | 3.2 | 4.8 | 0.00 | 0.00 | 0.00 | 63 | 914.2 |
| 20260906160407 | 21 | 212 | 4.8 | 8.0 | 0.00 | 0.00 | 0.00 | 63 | 914.4 |
| 20260906155905 | 21 | 218 | 9.7 | 9.7 | 0.00 | 0.00 | 0.00 | 63 | 914.6 |
| 20260906155359 | 21 | 198 | 8.0 | 9.7 | 0.00 | 0.00 | 0.00 | 63 | 914.4 |
| 20260906154855 | 22 | 203 | 4.8 | 4.8 | 0.00 | 0.00 | 0.00 | 62 | 914.6 |
| 20260906154349 | 21 | 211 | 8.0 | 9.7 | 0.00 | 0.00 | 0.00 | 64 | 914.5 |
| 20260906153848 | 21 | 210 | 6.4 | 9.7 | 0.00 | 0.00 | 0.00 | 64 | 914.4 |
| 20260906153347 | 21 | 201 | 3.2 | 6.4 | 0.00 | 0.00 | 0.00 | 66 | 914.6 |
| 20260906152843 | 21 | 222 | 3.2 | 4.8 | 0.00 | 0.00 | 0.00 | 66 | 914.6 |
| 20260906152343 | 21 | 182 | 4.8 | 6.4 | 0.00 | 0.00 | 0.00 | 66 | 914.6 |
| 20260906151842 | 21 | 223 | 6.4 | 8.0 | 0.00 | 0.00 | 0.00 | 66 | 914.4 |
| 20260906151338 | 21 | 185 | 6.4 | 8.0 | 0.00 | 0.00 | 0.00 | 68 | 914.6 |
| 20260906150834 | 20 | 182 | 4.8 | 6.4 | 0.00 | 0.00 | 0.00 | 68 | 914.5 |
| 20260906150329 | 20 | 203 | 3.2 | 4.8 | 0.00 | 0.00 | 0.00 | 71 | 914.5 |
| 20260906145828 | 19 | 179 | 4.8 | 6.4 | 0.00 | 0.00 | 0.00 | 72 | 914.6 |
| 20260906145326 | 19 | 231 | 6.4 | 8.0 | 0.00 | 0.00 | 0.00 | 72 | 914.4 |
| 20260906144822 | 19 | 182 | 4.8 | 6.4 | 0.00 | 0.00 | 0.00 | 73 | 914.5 |
| 20260906144317 | 18 | 230 | 8.0 | 8.0 | 0.00 | 0.00 | 0.00 | 73 | 914.5 |
| 20260906143816 | 18 | 189 | 8.0 | 9.7 | 0.00 | 0.00 | 0.00 | 73 | 914.8 |
| 20260906143313 | 18 | 221 | 3.2 | 4.8 | 0.00 | 0.00 | 0.00 | 73 | 914.5 |
| 20260906142809 | 18 | 202 | 4.8 | 6.4 | 0.00 | 0.00 | 0.00 | 74 | 914.4 |
| 20260906142306 | 18 | 192 | 4.8 | 6.4 | 0.00 | 0.00 | 0.00 | 74 | 914.4 |
| 20260906141802 | 17 | 204 | 4.8 | 6.4 | 0.00 | 0.00 | 0.00 | 75 | 914.6 |
| 20260906141257 | 17 | 205 | 4.8 | 6.4 | 0.00 | 0.00 | 0.00 | 75 | 914.3 |
| 20260906140756 | 17 | 195 | 4.8 | 6.4 | 0.00 | 0.00 | 0.00 | 75 | 914.6 |
| 20260906140251 | 17 | 225 | 4.8 | 6.4 | 0.00 | 0.00 | 0.00 | 77 | 914.6 |
| 20260906135749 | 17 | 200 | 3.2 | 6.4 | 0.00 | 0.00 | 0.00 | 78 | 914.5 |
| 20260906135244 | 17 | 201 | 4.8 | 6.4 | 0.00 | 0.00 | 0.00 | 79 | 914.7 |
| 20260906134740 | 16 | 221 | 4.8 | 8.0 | 0.00 | 0.00 | 0.00 | 80 | 914.4 |
| 20260906134235 | 16 | 224 | 4.8 | 6.4 | 0.00 | 0.00 | 0.00 | 81 | 914.4 |
| 20260906133730 | 16 | 195 | 4.8 | 6.4 | 0.00 | 0.00 | 0.00 | 82 | 914.4 |
| 20260906133226 | 16 | 209 | 4.8 | 4.8 | 0.00 | 0.00 | 0.00 | 84 | 914.4 |
| 20260906132721 | 16 | 183 | 4.8 | 6.4 | 0.00 | 0.00 | 0.00 | 84 | 914.6 |
| 20260906132216 | 16 | 224 | 1.6 | 4.8 | 0.00 | 0.00 | 0.00 | 85 | 914.5 |
| 20260906131712 | 15 | 210 | 8.0 | 8.0 | 0.00 | 0.00 | 0.00 | 85 | 914.6 |
| 20260906131207 | 15 | 170 | 6.4 | 8.0 | 0.00 | 0.00 | 0.00 | 85 | 914.5 |
| 20260906130702 | 15 | 206 | 8.0 | 9.7 | 0.00 | 0.00 | 0.00 | 85 | 914.2 |
| 20260906130157 | 15 | 217 | 6.4 | 8.0 | 0.00 | 0.00 | 0.00 | 85 | 914.5 |
| 20260906125655 | 15 | 208 | 6.4 | 8.0 | 0.00 | 0.00 | 0.00 | 85 | 914.4 |
| 20260906125154 | 15 | 192 | 6.4 | 6.4 | 0.00 | 0.00 | 0.00 | 85 | 914.5 |
| 20260906124649 | 15 | 195 | 6.4 | 8.0 | 0.00 | 0.00 | 0.00 | 85 | 914.4 |
| 20260906124144 | 15 | 210 | 9.7 | 9.7 | 0.00 | 0.00 | 0.00 | 85 | 914.4 |
| 20260906123643 | 15 | 203 | 4.8 | 4.8 | 0.00 | 0.00 | 0.00 | 85 | 914.2 |
| 20260906123139 | 15 | 201 | 6.4 | 8.0 | 0.00 | 0.00 | 0.00 | 85 | 914.3 |
| 20260906122638 | 15 | 223 | 6.4 | 8.0 | 0.00 | 0.00 | 0.00 | 85 | 914.2 |
| 20260906122134 | 16 | 206 | 6.4 | 8.0 | 0.00 | 0.00 | 0.00 | 84 | 914.4 |
| 20260906121630 | 16 | 206 | 8.0 | 8.0 | 0.00 | 0.00 | 0.00 | 84 | 914.1 |
| 20260906121126 | 16 | 220 | 4.8 | 6.4 | 0.00 | 0.00 | 0.00 | 83 | 914.3 |
| 20260906120622 | 16 | 194 | 6.4 | 8.0 | 0.00 | 0.00 | 0.00 | 82 | 914.1 |
| 20260906120119 | 16 | 205 | 8.0 | 9.7 | 0.00 | 0.00 | 0.00 | 82 | 914.2 |
| 20260906115619 | 16 | 212 | 9.7 | 9.7 | 0.00 | 0.00 | 0.00 | 82 | 914.1 |
| 20260906115114 | 16 | 201 | 6.4 | 9.7 | 0.00 | 0.00 | 0.00 | 82 | 914.3 |
| 20260906114613 | 16 | 205 | 8.0 | 8.0 | 0.00 | 0.00 | 0.00 | 82 | 914.3 |
| 20260906114109 | 16 | 215 | 4.8 | 6.4 | 0.00 | 0.00 | 0.00 | 82 | 914.3 |
| 20260906113609 | 16 | 221 | 4.8 | 4.8 | 0.00 | 0.00 | 0.00 | 82 | 914.2 |
| 20260906113103 | 16 | 198 | 4.8 | 8.0 | 0.00 | 0.00 | 0.00 | 82 | 914.2 |
| 20260906112557 | 16 | 197 | 4.8 | 6.4 | 0.00 | 0.00 | 0.00 | 82 | 914.2 |
| 20260906112055 | 16 | 204 | 6.4 | 8.0 | 0.00 | 0.00 | 0.00 | 82 | 914.2 |
| 20260906111553 | 16 | 201 | 8.0 | 8.0 | 0.00 | 0.00 | 0.00 | 81 | 914.0 |
| 20260906111049 | 16 | 218 | 4.8 | 6.4 | 0.00 | 0.00 | 0.00 | 81 | 913.8 |
| 20260906110549 | 17 | 208 | 4.8 | 6.4 | 0.00 | 0.00 | 0.00 | 81 | 914.2 |
| 20260906110048 | 17 | 179 | 4.8 | 4.8 | 0.00 | 0.00 | 0.00 | 81 | 914.0 |
| 20260906105543 | 17 | 225 | 6.4 | 6.4 | 0.00 | 0.00 | 0.00 | 81 | 914.3 |
| 20260906105039 | 17 | 203 | 4.8 | 4.8 | 0.00 | 0.00 | 0.00 | 80 | 914.3 |
| 20260906104537 | 17 | 196 | 1.6 | 1.6 | 0.00 | 0.00 | 0.00 | 80 | 914.1 |
| 20260906104032 | 17 | 180 | 4.8 | 6.4 | 0.00 | 0.00 | 0.00 | 80 | 914.4 |
| 20260906103530 | 17 | 197 | 4.8 | 4.8 | 0.00 | 0.00 | 0.00 | 80 | 914.3 |
| 20260906103026 | 17 | 197 | 1.6 | 1.6 | 0.00 | 0.00 | 0.00 | 79 | 914.0 |
| 20260906102526 | 17 | 198 | 3.2 | 4.8 | 0.00 | 0.00 | 0.00 | 79 | 914.3 |
| 20260906102020 | 17 | 202 | 4.8 | 6.4 | 0.00 | 0.00 | 0.00 | 79 | 914.1 |
| 20260906101515 | 17 | 218 | 6.4 | 8.0 | 0.00 | 0.00 | 0.00 | 78 | 914.1 |
| 20260906101010 | 17 | 191 | 8.0 | 12.9 | 0.00 | 0.00 | 0.00 | 78 | 914.0 |
| 20260906100506 | 17 | 221 | 8.0 | 12.9 | 0.00 | 0.00 | 0.00 | 78 | 914.2 |
| 20260906100000 | 17 | 242 | 4.8 | 6.4 | 0.00 | 0.00 | 0.00 | 78 | 913.7 |
| 20260906095455 | 17 | 206 | 8.0 | 8.0 | 0.00 | 0.00 | 0.00 | 77 | 914.0 |
| 20260906094950 | 16 | 212 | 4.8 | 6.4 | 0.00 | 0.00 | 0.00 | 76 | 913.8 |
| 20260906094449 | 16 | 198 | 1.6 | 4.8 | 0.00 | 0.00 | 0.00 | 75 | 913.8 |
| 20260906093945 | 16 | 201 | 1.6 | 1.6 | 0.00 | 0.00 | 0.00 | 74 | 913.7 |
| 20260906093441 | 16 | 195 | 1.6 | 1.6 | 0.00 | 0.00 | 0.00 | 75 | 913.6 |
| 20260906092936 | 16 | 203 | 1.6 | 4.8 | 0.00 | 0.00 | 0.00 | 75 | 913.4 |
| 20260906092436 | 16 | 219 | 1.6 | 4.8 | 0.00 | 0.00 | 0.00 | 75 | 913.6 |
| 20260906091931 | 16 | 206 | 4.8 | 4.8 | 0.00 | 0.00 | 0.00 | 75 | 913.4 |
| 20260906091427 | 16 | 163 | 1.6 | 1.6 | 0.00 | 0.00 | 0.00 | 74 | 913.7 |
| 20260906090923 | 16 | 203 | 3.2 | 4.8 | 0.00 | 0.00 | 0.00 | 74 | 913.6 |
| 20260906090418 | 16 | 198 | 1.6 | 1.6 | 0.00 | 0.00 | 0.00 | 74 | 913.4 |
| 20260906085912 | 16 | 239 | 3.2 | 4.8 | 0.00 | 0.00 | 0.00 | 75 | 913.5 |
| 20260906085412 | 16 | 205 | 1.6 | 1.6 | 0.00 | 0.00 | 0.00 | 76 | 913.6 |
| 20260906084911 | 16 | 120 | 0.0 | 0.0 | 0.00 | 0.00 | 0.00 | 76 | 913.6 |
| 20260906084406 | 15 | 234 | 1.6 | 1.6 | 0.00 | 0.00 | 0.00 | 76 | 913.5 |
| 20260906083905 | 15 | 198 | 0.0 | 0.0 | 0.00 | 0.00 | 0.00 | 76 | 913.6 |
| 20260906083401 | 15 | 213 | 0.0 | 0.0 | 0.00 | 0.00 | 0.00 | 76 | 913.8 |
| 20260906082900 | 15 | 158 | 1.6 | 1.6 | 0.00 | 0.00 | 0.00 | 76 | 913.8 |
| 20260906082355 | 16 | 180 | 0.0 | 1.6 | 0.00 | 0.00 | 0.00 | 76 | 914.2 |
| 20260906081852 | 16 | 160 | 0.0 | 1.6 | 0.00 | 0.00 | 0.00 | 76 | 914.2 |
| 20260906081347 | 16 | 138 | 1.6 | 1.6 | 0.00 | 0.00 | 0.00 | 76 | 914.2 |
| 20260906080843 | 16 | 152 | 0.0 | 1.6 | 0.00 | 0.00 | 0.00 | 75 | 914.0 |
| 20260906080339 | 16 | 178 | 0.0 | 0.0 | 0.00 | 0.00 | 0.00 | 75 | 913.8 |
| 20260906075838 | 16 | 172 | 0.0 | 0.0 | 0.00 | 0.00 | 0.00 | 75 | 914.0 |
| 20260906075333 | 16 | 184 | 1.6 | 1.6 | 0.00 | 0.00 | 0.00 | 75 | 914.1 |
| 20260906074828 | 16 | 203 | 0.0 | 0.0 | 0.00 | 0.00 | 0.00 | 74 | 914.0 |
| 20260906074328 | 16 | 205 | 0.0 | 0.0 | 0.00 | 0.00 | 0.00 | 74 | 914.0 |
| 20260906073827 | 16 | 192 | 1.6 | 1.6 | 0.00 | 0.00 | 0.00 | 74 | 914.1 |
| 20260906073322 | 16 | 196 | 1.6 | 1.6 | 0.00 | 0.00 | 0.00 | 74 | 914.0 |
| 20260906072818 | 16 | 2 | 0.0 | 0.0 | 0.00 | 0.00 | 0.00 | 74 | 914.1 |
| 20260906072313 | 16 | 210 | 1.6 | 1.6 | 0.00 | 0.00 | 0.00 | 75 | 913.8 |
| 20260906071809 | 17 | 185 | 1.6 | 1.6 | 0.00 | 0.00 | 0.00 | 75 | 914.1 |
| 20260906071304 | 17 | 35 | 0.0 | 1.6 | 0.00 | 0.00 | 0.00 | 75 | 913.8 |
| 20260906070800 | 17 | 292 | 1.6 | 1.6 | 0.00 | 0.00 | 0.00 | 77 | 913.7 |
| 20260906070256 | 17 | 262 | 3.2 | 4.8 | 0.00 | 0.00 | 0.00 | 78 | 913.8 |
| 20260906065755 | 17 | 188 | 0.0 | 0.0 | 0.00 | 0.00 | 0.00 | 78 | 913.8 |
| 20260906065251 | 17 | 183 | 0.0 | 0.0 | 0.00 | 0.00 | 0.00 | 78 | 914.1 |
| 20260906064747 | 17 | 192 | 0.0 | 1.6 | 0.00 | 0.00 | 0.00 | 78 | 913.7 |
| 20260906064242 | 17 | 187 | 0.0 | 0.0 | 0.00 | 0.00 | 0.00 | 78 | 913.8 |
| 20260906063737 | 17 | 174 | 0.0 | 0.0 | 0.00 | 0.00 | 0.00 | 79 | 913.7 |
| 20260906063233 | 17 | 210 | 0.0 | 0.0 | 0.00 | 0.00 | 0.00 | 79 | 913.8 |
| 20260906062728 | 17 | 197 | 0.0 | 0.0 | 0.00 | 0.00 | 0.00 | 79 | 914.0 |
| 20260906062227 | 17 | 214 | 0.0 | 0.0 | 0.00 | 0.00 | 0.00 | 80 | 913.7 |
| 20260906061723 | 17 | 216 | 0.0 | 0.0 | 0.00 | 0.00 | 0.00 | 80 | 914.0 |
| 20260906061219 | 17 | 215 | 0.0 | 1.6 | 0.00 | 0.00 | 0.00 | 80 | 914.0 |
| 20260906060714 | 17 | 200 | 0.0 | 1.6 | 0.00 | 0.00 | 0.00 | 81 | 913.8 |
| 20260906060212 | 17 | 145 | 0.0 | 0.0 | 0.00 | 0.00 | 0.00 | 81 | 914.0 |
| 20260906055707 | 17 | 139 | 0.0 | 1.6 | 0.00 | 0.00 | 0.00 | 81 | 914.0 |
| 20260906055202 | 17 | 136 | 0.0 | 0.0 | 0.00 | 0.00 | 0.00 | 81 | 913.6 |
| 20260906054657 | 17 | 118 | 0.0 | 0.0 | 0.00 | 0.00 | 0.00 | 81 | 913.7 |
| 20260906054152 | 17 | 111 | 0.0 | 0.0 | 0.00 | 0.00 | 0.00 | 81 | 913.7 |
| 20260906053649 | 17 | 112 | 0.0 | 0.0 | 0.00 | 0.00 | 0.00 | 81 | 914.0 |
| 20260906053144 | 17 | 113 | 0.0 | 0.0 | 0.00 | 0.00 | 0.00 | 80 | 914.0 |
| 20260906052639 | 17 | 103 | 0.0 | 0.0 | 0.00 | 0.00 | 0.00 | 80 | 913.8 |
| 20260906052136 | 17 | 93 | 0.0 | 0.0 | 0.00 | 0.00 | 0.00 | 79 | 913.6 |
| 20260906051632 | 17 | 66 | 0.0 | 1.6 | 0.00 | 0.00 | 0.00 | 79 | 913.8 |
| 20260906051131 | 17 | 82 | 0.0 | 0.0 | 0.00 | 0.00 | 0.00 | 78 | 913.7 |
| 20260906050627 | 17 | 69 | 1.6 | 1.6 | 0.00 | 0.00 | 0.00 | 78 | 914.0 |
| 20260906050122 | 17 | 53 | 1.6 | 1.6 | 0.00 | 0.00 | 0.00 | 77 | 914.0 |
| 20260906045620 | 18 | 91 | 0.0 | 0.0 | 0.00 | 0.00 | 0.00 | 76 | 913.7 |
| 20260906045116 | 18 | 127 | 0.0 | 0.0 | 0.00 | 0.00 | 0.00 | 76 | 913.6 |
| 20260906044612 | 18 | 68 | 0.0 | 1.6 | 0.00 | 0.00 | 0.00 | 74 | 913.6 |
| 20260906044107 | 18 | 132 | 0.0 | 0.0 | 0.00 | 0.00 | 0.00 | 73 | 913.5 |
| 20260906043603 | 18 | 2 | 3.2 | 4.8 | 0.00 | 0.00 | 0.00 | 73 | 913.7 |
| 20260906043058 | 18 | 73 | 1.6 | 1.6 | 0.00 | 0.00 | 0.00 | 70 | 913.6 |
| 20260906042557 | 18 | 154 | 0.0 | 0.0 | 0.00 | 0.00 | 0.00 | 69 | 913.5 |
| 20260906042052 | 19 | 329 | 0.0 | 1.6 | 0.00 | 0.00 | 0.00 | 67 | 913.7 |
| 20260906041548 | 19 | 156 | 0.0 | 1.6 | 0.00 | 0.00 | 0.00 | 66 | 913.8 |
| 20260906041043 | 19 | 57 | 1.6 | 1.6 | 0.00 | 0.00 | 0.00 | 64 | 914.1 |
| 20260906040538 | 20 | 200 | 1.6 | 1.6 | 0.00 | 0.00 | 0.00 | 61 | 913.6 |
| 20260906040034 | 20 | 130 | 1.6 | 1.6 | 0.00 | 0.00 | 0.00 | 60 | 913.7 |
| 20260906035529 | 20 | 44 | 3.2 | 4.8 | 0.00 | 0.00 | 0.00 | 57 | 913.8 |
| 20260906035025 | 20 | 31 | 1.6 | 1.6 | 0.00 | 0.00 | 0.00 | 57 | 913.6 |
| 20260906034524 | 20 | 50 | 3.2 | 4.8 | 0.00 | 0.00 | 0.00 | 58 | 913.5 |
| 20260906034019 | 21 | 14 | 4.8 | 6.4 | 0.00 | 0.00 | 0.00 | 59 | 913.7 |
| 20260906033514 | 21 | 16 | 6.4 | 8.0 | 0.00 | 0.00 | 0.00 | 57 | 913.4 |
| 20260906033010 | 21 | 4 | 4.8 | 6.4 | 0.00 | 0.00 | 0.00 | 55 | 913.3 |
| 20260906032507 | 21 | 333 | 4.8 | 4.8 | 0.00 | 0.00 | 0.00 | 53 | 913.1 |
| 20260906032007 | 22 | 321 | 4.8 | 6.4 | 0.00 | 0.00 | 0.00 | 51 | 913.0 |
| 20260906031502 | 22 | 14 | 4.8 | 6.4 | 0.00 | 0.00 | 0.00 | 49 | 913.0 |
| 20260906030957 | 22 | 337 | 4.8 | 4.8 | 0.00 | 0.00 | 0.00 | 46 | 913.1 |
| 20260906030452 | 23 | 332 | 1.6 | 1.6 | 0.00 | 0.00 | 0.00 | 45 | 913.2 |
| 20260906025952 | 23 | 90 | 0.0 | 1.6 | 0.00 | 0.00 | 0.00 | 43 | 913.1 |
| 20260906025446 | 23 | 1 | 3.2 | 4.8 | 0.00 | 0.00 | 0.00 | 38 | 913.1 |
| 20260906024944 | 23 | 14 | 4.8 | 4.8 | 0.00 | 0.00 | 0.00 | 37 | 912.9 |
| 20260906024439 | 23 | 13 | 4.8 | 6.4 | 0.00 | 0.00 | 0.00 | 37 | 912.9 |
| 20260906023939 | 23 | 124 | 1.6 | 1.6 | 0.00 | 0.00 | 0.00 | 36 | 913.2 |
| 20260906023435 | 23 | 211 | 1.6 | 1.6 | 0.00 | 0.00 | 0.00 | 35 | 913.5 |
| 20260906022930 | 24 | 55 | 3.2 | 4.8 | 0.00 | 0.00 | 0.00 | 34 | 912.8 |
| 20260906022425 | 24 | 12 | 3.2 | 4.8 | 0.00 | 0.00 | 0.00 | 33 | 912.5 |
| 20260906021920 | 24 | 349 | 1.6 | 4.8 | 0.00 | 0.00 | 0.00 | 33 | 912.5 |
| 20260906021420 | 25 | 191 | 0.0 | 0.0 | 0.00 | 0.00 | 0.00 | 33 | 912.6 |
| 20260906020915 | 25 | 64 | 1.6 | 1.6 | 0.00 | 0.00 | 0.00 | 32 | 912.4 |
| 20260906020415 | 25 | 210 | 0.0 | 1.6 | 0.00 | 0.00 | 0.00 | 32 | 912.4 |
| 20260906015909 | 25 | 285 | 1.6 | 1.6 | 0.00 | 0.00 | 0.00 | 32 | 912.3 |
| 20260906015408 | 25 | 323 | 3.2 | 4.8 | 0.00 | 0.00 | 0.00 | 32 | 912.1 |
| 20260906014903 | 25 | 2 | 4.8 | 6.4 | 0.00 | 0.00 | 0.00 | 32 | 912.4 |
| 20260906014403 | 25 | 8 | 4.8 | 6.4 | 0.00 | 0.00 | 0.00 | 31 | 912.2 |
| 20260906013859 | 25 | 354 | 4.8 | 6.4 | 0.00 | 0.00 | 0.00 | 30 | 912.2 |
| 20260906013354 | 25 | 31 | 6.4 | 8.0 | 0.00 | 0.00 | 0.00 | 30 | 912.0 |
| 20260906012849 | 26 | 326 | 6.4 | 8.0 | 0.00 | 0.00 | 0.00 | 30 | 912.1 |
| 20260906012344 | 26 | 313 | 4.8 | 6.4 | 0.00 | 0.00 | 0.00 | 30 | 912.2 |
| 20260906011843 | 26 | 332 | 4.8 | 8.0 | 0.00 | 0.00 | 0.00 | 29 | 912.3 |
| 20260906011338 | 26 | 341 | 6.4 | 8.0 | 0.00 | 0.00 | 0.00 | 29 | 912.3 |
| 20260906010834 | 27 | 3 | 8.0 | 9.7 | 0.00 | 0.00 | 0.00 | 29 | 912.5 |
| 20260906010331 | 27 | 23 | 4.8 | 8.0 | 0.00 | 0.00 | 0.00 | 28 | 912.5 |
| 20260906005821 | 27 | 319 | 6.4 | 8.0 | 0.00 | 0.00 | 0.00 | 27 | 912.5 |
| 20260906005319 | 27 | 19 | 8.0 | 12.9 | 0.00 | 0.00 | 0.00 | 27 | 912.4 |
| 20260906004819 | 28 | 348 | 4.8 | 6.4 | 0.00 | 0.00 | 0.00 | 27 | 912.5 |
| 20260906004318 | 28 | 322 | 1.6 | 1.6 | 0.00 | 0.00 | 0.00 | 27 | 912.5 |
| 20260906003813 | 28 | 42 | 1.6 | 1.6 | 0.00 | 0.00 | 0.00 | 27 | 912.5 |
| 20260906003309 | 28 | 14 | 3.2 | 4.8 | 0.00 | 0.00 | 0.00 | 25 | 912.6 |
| 20260906002804 | 28 | 9 | 4.8 | 6.4 | 0.00 | 0.00 | 0.00 | 25 | 912.2 |
| 20260906002306 | 28 | 11 | 3.2 | 4.8 | 0.00 | 0.00 | 0.00 | 26 | 912.4 |
| 20260906001800 | 28 | 330 | 1.6 | 4.8 | 0.00 | 0.00 | 0.00 | 26 | 912.3 |
| 20260906001254 | 29 | 17 | 8.0 | 8.0 | 0.00 | 0.00 | 0.00 | 25 | 912.2 |
| 20260906000749 | 29 | 350 | 3.2 | 4.8 | 0.00 | 0.00 | 0.00 | 25 | 912.5 |
| 20260906000244 | 29 | 118 | 0.0 | 0.0 | 0.00 | 0.00 | 0.00 | 24 | 912.5 |
| 20260905235739 | 29 | 90 | 0.0 | 1.6 | 0.00 | 0.00 | 0.00 | 24 | 912.4 |
| 20260905235238 | 30 | 96 | 1.6 | 1.6 | 0.00 | 0.00 | 0.00 | 23 | 912.4 |
| 20260905234734 | 30 | 3 | 4.8 | 6.4 | 0.00 | 0.00 | 0.00 | 24 | 912.4 |
| 20260905234230 | 30 | 345 | 8.0 | 8.0 | 0.00 | 0.00 | 0.00 | 24 | 912.3 |
| 20260905233725 | 30 | 71 | 3.2 | 4.8 | 0.00 | 0.00 | 0.00 | 23 | 912.4 |
| 20260905233224 | 31 | 55 | 3.2 | 4.8 | 0.00 | 0.00 | 0.00 | 22 | 912.3 |
| 20260905232719 | 31 | 80 | 1.6 | 1.6 | 0.00 | 0.00 | 0.00 | 23 | 912.2 |
| 20260905232215 | 31 | 170 | 0.0 | 0.0 | 0.00 | 0.00 | 0.00 | 24 | 912.2 |
| 20260905231711 | 31 | 100 | 3.2 | 6.4 | 0.00 | 0.00 | 0.00 | 23 | 912.3 |
| 20260905231206 | 31 | 48 | 1.6 | 1.6 | 0.00 | 0.00 | 0.00 | 25 | 912.2 |
| 20260905230702 | 31 | 43 | 1.6 | 1.6 | 0.00 | 0.00 | 0.00 | 24 | 912.1 |
| 20260905230159 | 30 | 2 | 4.8 | 6.4 | 0.00 | 0.00 | 0.00 | 23 | 912.2 |
| 20260905225659 | 30 | 359 | 1.6 | 4.8 | 0.00 | 0.00 | 0.00 | 22 | 912.1 |
| 20260905225154 | 30 | 6 | 4.8 | 4.8 | 0.00 | 0.00 | 0.00 | 23 | 912.2 |
| 20260905224653 | 29 | 343 | 0.0 | 0.0 | 0.00 | 0.00 | 0.00 | 23 | 912.1 |
| 20260905224148 | 29 | 23 | 4.8 | 6.4 | 0.00 | 0.00 | 0.00 | 23 | 912.1 |
| 20260905223645 | 29 | 351 | 4.8 | 6.4 | 0.00 | 0.00 | 0.00 | 24 | 912.2 |
| 20260905223141 | 29 | 342 | 6.4 | 6.4 | 0.00 | 0.00 | 0.00 | 23 | 911.9 |
| 20260905222637 | 29 | 58 | 3.2 | 4.8 | 0.00 | 0.00 | 0.00 | 24 | 912.2 |
| 20260905222131 | 30 | 59 | 6.4 | 8.0 | 0.00 | 0.00 | 0.00 | 24 | 912.3 |
| 20260905221627 | 29 | 27 | 3.2 | 4.8 | 0.00 | 0.00 | 0.00 | 24 | 912.4 |
| 20260905221124 | 30 | 16 | 3.2 | 6.4 | 0.00 | 0.00 | 0.00 | 24 | 912.1 |
| 20260905220619 | 30 | 48 | 4.8 | 6.4 | 0.00 | 0.00 | 0.00 | 24 | 912.2 |
| 20260905220115 | 31 | 131 | 3.2 | 6.4 | 0.00 | 0.00 | 0.00 | 23 | 912.2 |
| 20260905215614 | 31 | 57 | 3.2 | 4.8 | 0.00 | 0.00 | 0.00 | 22 | 912.3 |
| 20260905215110 | 31 | 42 | 1.6 | 1.6 | 0.00 | 0.00 | 0.00 | 22 | 912.2 |
| 20260905214606 | 30 | 29 | 4.8 | 8.0 | 0.00 | 0.00 | 0.00 | 22 | 912.8 |
| 20260905214106 | 31 | 37 | 4.8 | 6.4 | 0.00 | 0.00 | 0.00 | 22 | 912.6 |
| 20260905213602 | 31 | 103 | 1.6 | 1.6 | 0.00 | 0.00 | 0.00 | 24 | 912.4 |